ROMMA est une association bénévole à but non lucratif. Votre soutien est indispensable : ADHERER à ROMMA ou FAIRE un DON

Saint-Léger-les-Mélèzes - (05, Hautes-Alpes)

Champsaur (1245 m)   Longitude: 6° 11' 42" E    Latitude: 44° 38' 38" N Station partenaire n°51
 

Détail journalier du     <<     >>

Température Precipitation Humidité Vent Dir Rafale Dir. rafale Ensol.
Heure (°C) (mm) (%) (km/h) (km/h) (min)
01:00 15.70662SSO6SSO0
02:00 14.90692SSO6SSO0
03:00 14.70691SSO5SSO0
04:00 14.20732SSO5SSO0
05:00 14.10712SSO6SSO0
06:00 13.60722S8SSO0
07:00 13.40713S6S0
08:00 13.10722S8S0
09:00 14.20672S8S10
10:00 17.305603S50
11:00 17.706406ONO0
12:00 20.60543ONO11NO0
13:00 23.50413NO16ONO20
14:00 24.40414NO18NO60
15:00 24.10389ONO29O60
16:00 24.303210ONO29NO60
17:00 24.40317ONO31OSO60
18:00 23.50399ONO32OSO60
19:00 21.70435O23NO10
20:00 19.70525S18OSO10
21:00 18.40573S16SSE0
22:00 16.80641S8SSE0
23:00 15.706503S0
minuit 15.006803S0

Graphique du 17-09-2019

 

Serveur OMMA